Weather History for GMMX - March, 2012

Change the Weather History Date:

Friday, March 30, 2012

  Actual Average Record
Temperature  
Mean Temperature 62 °F -  
Max Temperature 68 °F 75 °F 93 °F (2005)
Min Temperature 55 °F 52 °F 42 °F (2009)
Degree Days  
Heating Degree Days 4    
Growing Degree Days 12 (Base 50)    
Moisture  
Dew Point 51 °F    
Average Humidity 70    
Maximum Humidity 94    
Minimum Humidity 33    
Precipitation  
Precipitation 0.00 in 0.05 in - ()
Sea Level Pressure  
Sea Level Pressure 30.00 in    
Wind  
Wind Speed 7 mph ()    
Max Wind Speed 16 mph    
Max Gust Speed -    
Visibility 4.9 miles    
Events      
Averages and records for this station are not official NWS values.
T = Trace of Precipitation, MM = Missing Value Source: Averaged Metar Reports

Daily Weather History Graph

Daily Weather History Graph

Search for Another Location

Airport or City:

Trip Planner

Search our weather history database for the weather conditions in past years. The results will help you decide how hot, cold, wet, or windy it might be!

Date:

Astronomy

Mar. 30, 2012 Rise Set
Actual Time 6:22 AM WET 6:50 PM WET
Civil Twilight 5:58 AM WET 7:14 PM WET
Nautical Twilight 5:29 AM WET 7:43 PM WET
Astronomical Twilight 5:00 AM WET 8:12 PM WET
Moon 11:32 AM WET (3/30) 12:59 AM WET (3/30)
Length of Visible Light 13h 16m
Length of Day
12h 27m
Waxing Crescent, 47% of the Moon is Illuminated
Mar 30
Waxing Crescent
Mar 30
First Quarter
Apr 6
Full
Apr 13
Last Quarter
Apr 21
New

Hourly Weather History & Observations

Time (WET) Temp. Dew Point Humidity Pressure Visibility Wind Dir Wind Speed Gust Speed Precip Events Conditions
12:00 AM 59.0 °F 53.6 °F 82% 30.06 in 3.1 mi WNW 11.5 mph - N/A   Mostly Cloudy
12:30 AM 59.0 °F 53.6 °F 82% 30.04 in 3.1 mi WNW 8.1 mph - N/A   Mostly Cloudy
1:00 AM 59.0 °F 51.8 °F 77% 30.04 in 3.1 mi WNW 9.2 mph - N/A   Mostly Cloudy
1:30 AM 59.0 °F 53.6 °F 82% 30.04 in 3.1 mi West 9.2 mph - N/A   Mostly Cloudy
2:00 AM 57.2 °F 53.6 °F 88% 30.01 in 3.1 mi WNW 6.9 mph - N/A   Mostly Cloudy
2:30 AM 57.2 °F 53.6 °F 88% 30.01 in 3.1 mi West 4.6 mph - N/A   Mostly Cloudy
3:00 AM 58 °F 53 °F 79% 30.00 in 3 mi WSW 6.9 mph - -   Mostly Cloudy
3:00 AM 57.2 °F 53.6 °F 88% 30.01 in 3.1 mi WSW 6.9 mph - N/A   Mostly Cloudy
3:30 AM 57.2 °F 53.6 °F 88% 30.01 in 3.1 mi West 8.1 mph - N/A   Mostly Cloudy
4:00 AM 57.2 °F 53.6 °F 88% 30.01 in 3.1 mi West 9.2 mph - N/A   Unknown
5:00 AM 57.2 °F 53.6 °F 88% 30.01 in 3.1 mi West 6.9 mph - N/A   Mostly Cloudy
5:30 AM 57.2 °F 53.6 °F 88% 30.01 in 3.1 mi West 9.2 mph - N/A   Mostly Cloudy
5:49 AM 56 °F 53 °F 88% 30.01 in 4 mi West 6.9 mph - -   Overcast
6:00 AM 57.2 °F 53.6 °F 88% 30.01 in 3.7 mi West 6.9 mph - N/A   Mostly Cloudy
6:30 AM 55.4 °F 53.6 °F 94% 30.01 in 3.7 mi West 4.6 mph - N/A   Mostly Cloudy
7:00 AM 55.4 °F 53.6 °F 94% 30.01 in 3.7 mi SW 4.6 mph - N/A   Mostly Cloudy
7:30 AM 57.2 °F 53.6 °F 88% 30.01 in 3.7 mi Variable 3.5 mph - N/A   Mostly Cloudy
8:00 AM 57.2 °F 53.6 °F 88% 30.01 in 3.7 mi West 4.6 mph - N/A   Scattered Clouds
8:30 AM 57.2 °F 53.6 °F 88% 30.01 in 5.0 mi West 3.5 mph - N/A   Scattered Clouds
9:00 AM 58 °F 54 °F 80% 30.02 in 6 mi West 4.6 mph - -   Mostly Cloudy
9:00 AM 59.0 °F 53.6 °F 82% 30.04 in 5.6 mi West 4.6 mph - N/A   Scattered Clouds
9:30 AM 59.0 °F 53.6 °F 82% 30.04 in 6.2 mi West 5.8 mph - N/A   Mostly Cloudy
10:00 AM 59.0 °F 53.6 °F 82% 30.04 in 6.2 mi West 8.1 mph - N/A   Mostly Cloudy
10:30 AM 60.8 °F 53.6 °F 77% 30.04 in 6.2 mi WSW 5.8 mph - N/A   Mostly Cloudy
11:00 AM 62.6 °F 51.8 °F 68% 30.04 in 6.2 mi West 5.8 mph - N/A   Mostly Cloudy
11:30 AM 62.6 °F 51.8 °F 68% 30.01 in 6.2 mi WSW 5.8 mph - N/A   Mostly Cloudy
12:00 PM 65 °F 52 °F 53% 29.97 in 6 mi SW 4.6 mph - -   Mostly Cloudy
12:00 PM 64.4 °F 51.8 °F 64% 30.01 in 6.2 mi Variable 3.5 mph - N/A   Mostly Cloudy
12:30 PM 64.4 °F 50.0 °F 59% 30.01 in 6.2 mi WNW 4.6 mph - N/A   Mostly Cloudy
1:00 PM 66.2 °F 50.0 °F 56% 29.98 in 6.2 mi Variable 3.5 mph - N/A   Mostly Cloudy
2:00 PM 66.2 °F 50.0 °F 56% 29.98 in 6.2 mi WSW 4.6 mph - N/A   Mostly Cloudy
2:46 PM 68 °F 50 °F 41% 29.91 in 5 mi West 5.8 mph - -   Mostly Cloudy
3:00 PM 68.0 °F 50.0 °F 52% 29.95 in 5.0 mi Variable 5.8 mph - N/A   Mostly Cloudy
4:00 PM 68.0 °F 46.4 °F 46% 29.95 in 5.0 mi WNW 10.4 mph - N/A   Mostly Cloudy
4:30 PM 68.0 °F 46.4 °F 46% 29.92 in 5.0 mi West 12.7 mph - N/A   Mostly Cloudy
5:30 PM 68.0 °F 46.4 °F 46% 29.95 in 5.0 mi West 13.8 mph - N/A   Mostly Cloudy
5:45 PM 68 °F 45 °F 33% 29.90 in 5 mi West 16.1 mph - -   Mostly Cloudy
6:00 PM 68.0 °F 44.6 °F 43% 29.95 in 5.0 mi West 16.1 mph - N/A   Mostly Cloudy
7:30 PM 62.6 °F 46.4 °F 55% 29.95 in 5.0 mi WNW 13.8 mph - N/A   Mostly Cloudy
8:00 PM 62.6 °F 46.4 °F 55% 29.98 in 6.2 mi West 16.1 mph - N/A   Mostly Cloudy
8:30 PM 60.8 °F 46.4 °F 59% 29.98 in 6.2 mi West 15.0 mph - N/A   Mostly Cloudy
9:00 PM 61 °F 47 °F 50% 29.97 in 6 mi WNW 10.4 mph - -   Mostly Cloudy
9:00 PM 60.8 °F 46.4 °F 59% 29.98 in 6.2 mi WNW 9.2 mph - N/A   Mostly Cloudy
9:30 PM 60.8 °F 48.2 °F 63% 30.01 in 6.2 mi WNW 10.4 mph - N/A   Mostly Cloudy
10:00 PM 59.0 °F 46.4 °F 63% 30.01 in 6.2 mi WNW 9.2 mph - N/A   Mostly Cloudy
10:30 PM 59.0 °F 46.4 °F 63% 29.98 in 6.2 mi WNW 6.9 mph - N/A   Mostly Cloudy
11:00 PM 59.0 °F 48.2 °F 67% 29.98 in 6.2 mi West 3.5 mph - N/A   Mostly Cloudy
11:30 PM 59.0 °F 48.2 °F 67% 29.98 in 6.2 mi WNW 4.6 mph - N/A   Mostly Cloudy